18-04-2022, 00:00:00,    184,    0.0,    8.5,   0.00,   0.00, 1013.8,   62.5, -999.0
18-04-2022, 00:00:10,    184,    0.0,    8.5,   0.00,   0.00, 1013.8,   62.5, -999.0
18-04-2022, 00:00:20,    183,    0.0,    8.6,   0.00,   0.00, 1013.8,   62.5, -999.0
18-04-2022, 00:00:30,    184,    0.0,    8.6,   0.00,   0.00, 1013.8,   62.5, -999.0
18-04-2022, 00:00:40,    187,    0.0,    8.5,   0.00,   0.00, 1013.8,   62.7, -999.0
18-04-2022, 00:00:50,    187,    0.0,    8.6,   0.00,   0.00, 1013.8,   62.7, -999.0
18-04-2022, 00:00:59,    187,    0.0,    8.6,   0.00,   0.00, 1013.8,   62.6, -999.0
18-04-2022, 00:01:10,    187,    0.0,    8.7,   0.00,   0.00, 1013.8,   62.7, -999.0
18-04-2022, 00:01:20,    188,    0.0,    8.6,   0.00,   0.00, 1013.8,   62.7, -999.0
18-04-2022, 00:01:29,    187,    0.0,    8.6,   0.00,   0.00, 1013.8,   62.5, -999.0
18-04-2022, 00:01:40,    187,    0.0,    8.6,   0.00,   0.00, 1013.8,   62.5, -999.0
18-04-2022, 00:01:50,    187,    0.0,    8.7,   0.00,   0.00, 1013.8,   62.6, -999.0
18-04-2022, 00:01:59,    187,    0.0,    8.7,   0.00,   0.00, 1013.9,   62.6, -999.0
18-04-2022, 00:02:09,    188,    0.0,    8.6,   0.00,   0.00, 1013.8,   62.6, -999.0
18-04-2022, 00:02:19,    188,    0.0,    8.7,   0.00,   0.00, 1013.9,   62.5, -999.0
18-04-2022, 00:02:29,    187,    0.0,    8.7,   0.00,   0.00, 1013.8,   62.5, -999.0
18-04-2022, 00:02:39,    188,    0.0,    8.7,   0.00,   0.00, 1013.9,   62.6, -999.0
18-04-2022, 00:02:49,    188,    0.0,    8.6,   0.00,   0.00, 1013.9,   62.5, -999.0
18-04-2022, 00:02:59,    187,    0.0,    8.7,   0.00,   0.00, 1013.9,   62.4, -999.0
18-04-2022, 00:03:09,    188,    0.0,    8.7,   0.00,   0.00, 1013.8,   62.4, -999.0
18-04-2022, 00:03:19,    187,    0.0,    8.7,   0.00,   0.00, 1013.8,   62.5, -999.0
18-04-2022, 00:03:29,    188,    0.0,    8.7,   0.00,   0.00, 1013.8,   62.4, -999.0
18-04-2022, 00:03:39,    188,    0.0,    8.7,   0.00,   0.00, 1013.8,   62.5, -999.0
18-04-2022, 00:03:49,    188,    0.0,    8.7,   0.00,   0.00, 1013.8,   62.5, -999.0
18-04-2022, 00:03:59,    187,    0.0,    8.7,   0.00,   0.00, 1013.8,   62.5, -999.0
18-04-2022, 00:04:09,    188,    0.0,    8.7,   0.00,   0.00, 1013.8,   62.5, -999.0
18-04-2022, 00:04:19,    188,    0.0,    8.7,   0.00,   0.00, 1013.8,   62.5, -999.0
18-04-2022, 00:04:29,    188,    0.0,    8.7,   0.00,   0.00, 1013.8,   62.6, -999.0
18-04-2022, 00:04:38,    188,    0.0,    8.7,   0.00,   0.00, 1013.8,   62.6, -999.0
18-04-2022, 00:04:49,    188,    0.0,    8.7,   0.00,   0.00, 1013.8,   62.6, -999.0
18-04-2022, 00:04:58,    187,    0.0,    8.7,   0.00,   0.00, 1013.8,   62.6, -999.0
18-04-2022, 00:05:08,    188,    0.0,    8.7,   0.00,   0.00, 1013.8,   62.6, -999.0
18-04-2022, 00:05:18,    188,    0.0,    8.7,   0.00,   0.00, 1013.8,   62.5, -999.0
18-04-2022, 00:05:28,    187,    0.0,    8.7,   0.00,   0.00, 1013.9,   62.5, -999.0
18-04-2022, 00:05:38,    187,    0.0,    8.7,   0.00,   0.00, 1013.8,   62.5, -999.0
18-04-2022, 00:05:48,    187,    0.0,    8.7,   0.00,   0.00, 1013.9,   62.4, -999.0
18-04-2022, 00:05:58,    188,    0.0,    8.7,   0.00,   0.00, 1013.9,   62.5, -999.0
18-04-2022, 00:06:08,    188,    0.0,    8.7,   0.00,   0.00, 1013.8,   62.5, -999.0
18-04-2022, 00:06:18,    188,    0.0,    8.7,   0.00,   0.00, 1013.8,   62.5, -999.0
18-04-2022, 00:06:28,    188,    0.0,    8.7,   0.00,   0.00, 1013.8,   62.6, -999.0
18-04-2022, 00:06:38,    187,    0.0,    8.7,   0.00,   0.00, 1013.8,   62.6, -999.0
18-04-2022, 00:06:48,    188,    0.0,    8.7,   0.00,   0.00, 1013.8,   62.6, -999.0
18-04-2022, 00:06:58,    187,    0.0,    8.8,   0.00,   0.00, 1013.8,   62.6, -999.0
18-04-2022, 00:07:08,    188,    0.0,    8.7,   0.00,   0.00, 1013.8,   62.4, -999.0
18-04-2022, 00:07:18,    188,    0.0,    8.7,   0.00,   0.00, 1013.8,   62.6, -999.0
18-04-2022, 00:07:28,    188,    0.0,    8.7,   0.00,   0.00, 1013.8,   62.6, -999.0
18-04-2022, 00:07:38,    187,    0.0,    8.6,   0.00,   0.00, 1013.8,   62.6, -999.0
18-04-2022, 00:07:47,    189,    0.0,    8.7,   0.00,   0.00, 1013.8,   62.6, -999.0
18-04-2022, 00:07:58,    188,    0.0,    8.7,   0.00,   0.00, 1013.8,   62.7, -999.0
18-04-2022, 00:08:07,    189,    0.0,    8.7,   0.00,   0.00, 1013.8,   62.6, -999.0
18-04-2022, 00:08:17,    189,    0.0,    8.7,   0.00,   0.00, 1013.8,   62.7, -999.0
18-04-2022, 00:08:28,    198,    0.4,    8.8,   0.00,   0.00, 1013.9,   63.0, -999.0
18-04-2022, 00:08:37,    197,    0.0,    8.7,   0.00,   0.00, 1013.8,   62.7, -999.0
18-04-2022, 00:08:47,    198,    0.0,    8.7,   0.00,   0.00, 1013.8,   62.8, -999.0
18-04-2022, 00:08:57,    198,    0.0,    8.7,   0.00,   0.00, 1013.8,   62.6, -999.0
18-04-2022, 00:09:07,    197,    0.0,    8.7,   0.00,   0.00, 1013.8,   62.7, -999.0
18-04-2022, 00:09:17,    198,    0.0,    8.6,   0.00,   0.00, 1013.8,   62.8, -999.0
18-04-2022, 00:09:27,    198,    0.0,    8.7,   0.00,   0.00, 1013.8,   62.7, -999.0
18-04-2022, 00:09:37,    198,    0.0,    8.7,   0.00,   0.00, 1013.8,   62.7, -999.0
18-04-2022, 00:09:47,    198,    0.0,    8.7,   0.00,   0.00, 1013.8,   62.9, -999.0
18-04-2022, 00:09:57,    198,    0.0,    8.8,   0.00,   0.00, 1013.8,   62.7, -999.0
18-04-2022, 00:10:07,    198,    0.0,    8.8,   0.00,   0.00, 1013.8,   62.8, -999.0
18-04-2022, 00:10:17,    198,    0.0,    8.8,   0.00,   0.00, 1013.8,   62.8, -999.0
18-04-2022, 00:10:27,    203,    0.1,    8.7,   0.00,   0.00, 1013.8,   63.0, -999.0
18-04-2022, 00:10:37,    203,    0.2,    8.8,   0.00,   0.00, 1013.8,   62.9, -999.0
18-04-2022, 00:10:47,    203,    0.0,    8.6,   0.00,   0.00, 1013.8,   62.8, -999.0
18-04-2022, 00:10:57,    203,    0.0,    8.6,   0.00,   0.00, 1013.8,   62.9, -999.0
18-04-2022, 00:11:07,    203,    0.0,    8.7,   0.00,   0.00, 1013.8,   62.8, -999.0
18-04-2022, 00:11:17,    209,    0.2,    8.7,   0.00,   0.00, 1013.9,   62.8, -999.0
18-04-2022, 00:11:26,    210,    0.9,    8.7,   0.00,   0.00, 1013.9,   63.1, -999.0
18-04-2022, 00:11:37,    211,    0.4,    8.6,   0.00,   0.00, 1013.9,   63.0, -999.0
18-04-2022, 00:11:46,    212,    0.1,    8.6,   0.00,   0.00, 1013.8,   62.9, -999.0
18-04-2022, 00:11:56,    214,    0.0,    8.6,   0.00,   0.00, 1013.8,   62.8, -999.0
18-04-2022, 00:12:06,    215,    0.0,    8.6,   0.00,   0.00, 1013.8,   62.8, -999.0
18-04-2022, 00:12:16,    215,    0.0,    8.6,   0.00,   0.00, 1013.8,   62.9, -999.0
18-04-2022, 00:12:26,    214,    0.2,    8.6,   0.00,   0.00, 1013.9,   63.2, -999.0
18-04-2022, 00:12:36,    206,    0.1,    8.7,   0.00,   0.00, 1013.9,   63.1, -999.0
18-04-2022, 00:12:46,    213,    0.5,    8.6,   0.00,   0.00, 1013.9,   63.4, -999.0
18-04-2022, 00:12:56,    224,    0.3,    8.6,   0.00,   0.00, 1013.9,   63.2, -999.0
18-04-2022, 00:13:06,    202,    0.1,    8.6,   0.00,   0.00, 1013.9,   63.3, -999.0
18-04-2022, 00:13:16,    210,    0.8,    8.7,   0.00,   0.00, 1014.0,   63.5, -999.0
18-04-2022, 00:13:26,    208,    1.0,    8.7,   0.00,   0.00, 1013.9,   63.6, -999.0
18-04-2022, 00:13:36,    209,    0.6,    8.7,   0.00,   0.00, 1014.0,   63.5, -999.0
18-04-2022, 00:13:46,    206,    0.6,    8.7,   0.00,   0.00, 1013.9,   63.7, -999.0
18-04-2022, 00:13:56,    207,    0.3,    8.6,   0.00,   0.00, 1013.9,   63.4, -999.0
18-04-2022, 00:14:06,    207,    0.0,    8.6,   0.00,   0.00, 1013.8,   63.3, -999.0
18-04-2022, 00:14:16,    207,    0.0,    8.6,   0.00,   0.00, 1013.8,   63.3, -999.0
18-04-2022, 00:14:26,    207,    0.0,    8.6,   0.00,   0.00, 1013.7,   63.3, -999.0
18-04-2022, 00:14:35,    206,    0.0,    8.6,   0.00,   0.00, 1013.8,   63.4, -999.0
18-04-2022, 00:14:46,    193,    0.7,    8.7,   0.00,   0.00, 1013.9,   63.7, -999.0
18-04-2022, 00:14:55,    193,    0.0,    8.6,   0.00,   0.00, 1013.8,   63.3, -999.0
18-04-2022, 00:15:05,    194,    0.0,    8.6,   0.00,   0.00, 1013.8,   63.3, -999.0
18-04-2022, 00:15:15,    194,    0.0,    8.6,   0.00,   0.00, 1013.8,   63.3, -999.0
18-04-2022, 00:15:25,    194,    0.0,    8.5,   0.00,   0.00, 1013.8,   63.3, -999.0
18-04-2022, 00:15:35,    195,    0.0,    8.7,   0.00,   0.00, 1013.8,   63.2, -999.0
18-04-2022, 00:15:45,    194,    0.0,    8.6,   0.00,   0.00, 1013.8,   63.3, -999.0
18-04-2022, 00:15:55,    194,    0.0,    8.6,   0.00,   0.00, 1013.8,   63.3, -999.0
18-04-2022, 00:16:05,    194,    0.0,    8.6,   0.00,   0.00, 1013.8,   63.3, -999.0
18-04-2022, 00:16:15,    195,    0.0,    8.6,   0.00,   0.00, 1013.8,   63.2, -999.0
18-04-2022, 00:16:25,    194,    0.0,    8.7,   0.00,   0.00, 1013.8,   63.2, -999.0
18-04-2022, 00:16:35,    195,    0.0,    8.7,   0.00,   0.00, 1013.7,   63.3, -999.0
18-04-2022, 00:16:45,    195,    0.0,    8.6,   0.00,   0.00, 1013.8,   63.3, -999.0
18-04-2022, 00:16:55,    195,    0.0,    8.7,   0.00,   0.00, 1013.7,   63.3, -999.0
18-04-2022, 00:17:05,    195,    0.0,    8.7,   0.00,   0.00, 1013.7,   63.3, -999.0
18-04-2022, 00:17:15,    195,    0.0,    8.7,   0.00,   0.00, 1013.8,   63.4, -999.0
18-04-2022, 00:17:25,    196,    0.0,    8.7,   0.00,   0.00, 1013.8,   63.3, -999.0
18-04-2022, 00:17:34,    196,    0.0,    8.7,   0.00,   0.00, 1013.8,   63.2, -999.0
18-04-2022, 00:17:44,    196,    0.0,    8.7,   0.00,   0.00, 1013.7,   63.3, -999.0
18-04-2022, 00:17:55,    197,    0.0,    8.7,   0.00,   0.00, 1013.7,   63.2, -999.0
18-04-2022, 00:18:04,    207,    0.0,    8.7,   0.00,   0.00, 1013.7,   63.2, -999.0
18-04-2022, 00:18:14,    207,    0.0,    8.6,   0.00,   0.00, 1013.8,   63.2, -999.0
18-04-2022, 00:18:25,    207,    0.0,    8.7,   0.00,   0.00, 1013.7,   63.2, -999.0
18-04-2022, 00:18:34,    207,    0.0,    8.7,   0.00,   0.00, 1013.7,   63.4, -999.0
18-04-2022, 00:18:44,    207,    0.0,    8.7,   0.00,   0.00, 1013.7,   63.4, -999.0
18-04-2022, 00:18:54,    207,    0.0,    8.7,   0.00,   0.00, 1013.7,   63.3, -999.0
18-04-2022, 00:19:04,    207,    0.0,    8.7,   0.00,   0.00, 1013.7,   63.3, -999.0
18-04-2022, 00:19:14,    207,    0.0,    8.8,   0.00,   0.00, 1013.7,   63.3, -999.0
18-04-2022, 00:19:24,    215,    0.0,    8.8,   0.00,   0.00, 1013.7,   63.3, -999.0
18-04-2022, 00:19:34,    217,    0.5,    8.9,   0.00,   0.00, 1013.9,   63.6, -999.0
18-04-2022, 00:19:44,    206,    0.3,    8.8,   0.00,   0.00, 1013.8,   63.5, -999.0
18-04-2022, 00:19:54,    213,    0.0,    8.7,   0.00,   0.00, 1013.8,   63.4, -999.0
18-04-2022, 00:20:04,    200,    0.4,    8.8,   0.00,   0.00, 1013.8,   63.6, -999.0
18-04-2022, 00:20:14,    200,    0.0,    8.7,   0.00,   0.00, 1013.7,   63.4, -999.0
18-04-2022, 00:20:24,    201,    0.0,    8.7,   0.00,   0.00, 1013.7,   63.4, -999.0
18-04-2022, 00:20:34,    201,    0.0,    8.7,   0.00,   0.00, 1013.8,   63.3, -999.0
18-04-2022, 00:20:43,    201,    0.0,    8.6,   0.00,   0.00, 1013.7,   63.4, -999.0
18-04-2022, 00:20:54,    201,    0.0,    8.6,   0.00,   0.00, 1013.7,   63.5, -999.0
18-04-2022, 00:21:04,    201,    0.0,    8.7,   0.00,   0.00, 1013.7,   63.4, -999.0
18-04-2022, 00:21:13,    201,    0.0,    8.7,   0.00,   0.00, 1013.7,   63.5, -999.0
18-04-2022, 00:21:23,    201,    0.0,    8.7,   0.00,   0.00, 1013.7,   63.5, -999.0
18-04-2022, 00:21:34,    208,    0.0,    8.7,   0.00,   0.00, 1013.7,   63.5, -999.0
18-04-2022, 00:21:43,    217,    0.0,    8.7,   0.00,   0.00, 1013.7,   63.5, -999.0
18-04-2022, 00:21:53,    279,    0.2,    8.7,   0.00,   0.00, 1013.8,   63.7, -999.0
18-04-2022, 00:22:03,    245,    0.0,    8.7,   0.00,   0.00, 1013.7,   63.6, -999.0
18-04-2022, 00:22:13,    243,    0.0,    8.7,   0.00,   0.00, 1013.8,   63.6, -999.0
18-04-2022, 00:22:23,    243,    0.0,    8.8,   0.00,   0.00, 1013.7,   63.6, -999.0
18-04-2022, 00:22:33,    243,    0.0,    8.8,   0.00,   0.00, 1013.7,   63.5, -999.0
18-04-2022, 00:22:43,    243,    0.0,    8.7,   0.00,   0.00, 1013.7,   63.5, -999.0
18-04-2022, 00:22:53,    243,    0.0,    8.8,   0.00,   0.00, 1013.7,   63.5, -999.0
18-04-2022, 00:23:03,    244,    0.0,    8.8,   0.00,   0.00, 1013.7,   63.6, -999.0
18-04-2022, 00:23:13,    243,    0.0,    8.8,   0.00,   0.00, 1013.7,   63.6, -999.0
18-04-2022, 00:23:23,    243,    0.0,    8.7,   0.00,   0.00, 1013.7,   63.5, -999.0
18-04-2022, 00:23:33,    243,    0.0,    8.8,   0.00,   0.00, 1013.7,   63.4, -999.0
18-04-2022, 00:23:43,    243,    0.0,    8.7,   0.00,   0.00, 1013.7,   63.4, -999.0
18-04-2022, 00:23:52,    243,    0.0,    8.7,   0.00,   0.00, 1013.7,   63.4, -999.0
18-04-2022, 00:24:03,    243,    0.0,    8.7,   0.00,   0.00, 1013.7,   63.5, -999.0
18-04-2022, 00:24:13,    201,    0.0,    8.7,   0.00,   0.00, 1013.8,   63.6, -999.0
18-04-2022, 00:24:22,    201,    0.2,    8.8,   0.00,   0.00, 1013.8,   63.9, -999.0
18-04-2022, 00:24:32,    201,    0.0,    8.7,   0.00,   0.00, 1013.7,   63.6, -999.0
18-04-2022, 00:24:43,    202,    0.0,    8.7,   0.00,   0.00, 1013.7,   63.7, -999.0
18-04-2022, 00:24:52,    203,    0.1,    8.7,   0.00,   0.00, 1013.7,   63.8, -999.0
18-04-2022, 00:25:02,    204,    0.9,    8.7,   0.00,   0.00, 1013.8,   63.9, -999.0
18-04-2022, 00:25:13,    206,    1.1,    8.8,   0.00,   0.00, 1013.9,   64.1, -999.0
18-04-2022, 00:25:22,    209,    0.4,    8.8,   0.00,   0.00, 1013.9,   64.2, -999.0
18-04-2022, 00:25:32,    208,    0.0,    8.6,   0.00,   0.00, 1013.7,   64.0, -999.0
18-04-2022, 00:25:42,    208,    0.0,    8.7,   0.00,   0.00, 1013.7,   63.9, -999.0
18-04-2022, 00:25:52,    208,    0.1,    8.7,   0.00,   0.00, 1013.8,   64.0, -999.0
18-04-2022, 00:26:02,    208,    0.0,    8.6,   0.00,   0.00, 1013.7,   63.9, -999.0
18-04-2022, 00:26:12,    207,    0.0,    8.6,   0.00,   0.00, 1013.7,   63.9, -999.0
18-04-2022, 00:26:22,    208,    0.0,    8.8,   0.00,   0.00, 1013.7,   64.0, -999.0
18-04-2022, 00:26:32,    208,    0.0,    8.7,   0.00,   0.00, 1013.7,   63.9, -999.0
18-04-2022, 00:26:42,    209,    0.1,    8.7,   0.00,   0.00, 1013.8,   64.1, -999.0
18-04-2022, 00:26:52,    208,    0.0,    8.7,   0.00,   0.00, 1013.7,   63.8, -999.0
18-04-2022, 00:27:02,    209,    0.0,    8.7,   0.00,   0.00, 1013.7,   63.9, -999.0
18-04-2022, 00:27:12,    208,    0.0,    8.7,   0.00,   0.00, 1013.7,   63.8, -999.0
18-04-2022, 00:27:22,    208,    0.0,    8.7,   0.00,   0.00, 1013.7,   64.0, -999.0
18-04-2022, 00:27:31,    202,    0.0,    8.7,   0.00,   0.00, 1013.8,   64.2, -999.0
18-04-2022, 00:27:42,    204,    0.1,    8.7,   0.00,   0.00, 1013.8,   64.2, -999.0
18-04-2022, 00:27:52,    218,    0.2,    8.8,   0.00,   0.00, 1013.8,   64.2, -999.0
18-04-2022, 00:28:01,    219,    0.0,    8.7,   0.00,   0.00, 1013.7,   63.9, -999.0
18-04-2022, 00:28:11,    218,    0.0,    8.7,   0.00,   0.00, 1013.7,   64.0, -999.0
18-04-2022, 00:28:23,    213,    0.0,    8.6,   0.00,   0.00, 1013.7,   64.0, -999.0
18-04-2022, 00:28:31,    209,    1.4,    8.7,   0.00,   0.00, 1013.9,   64.5, -999.0
18-04-2022, 00:28:41,    213,    0.4,    8.8,   0.00,   0.00, 1013.8,   64.5, -999.0
18-04-2022, 00:28:51,    213,    0.2,    8.7,   0.00,   0.00, 1013.8,   64.2, -999.0
18-04-2022, 00:29:01,    214,    0.0,    8.6,   0.00,   0.00, 1013.7,   64.0, -999.0
18-04-2022, 00:29:11,    213,    0.0,    8.6,   0.00,   0.00, 1013.7,   64.0, -999.0
18-04-2022, 00:29:21,    214,    0.0,    8.6,   0.00,   0.00, 1013.7,   64.2, -999.0
18-04-2022, 00:29:31,    213,    0.0,    8.6,   0.00,   0.00, 1013.7,   64.1, -999.0
18-04-2022, 00:29:41,    214,    0.0,    8.7,   0.00,   0.00, 1013.7,   64.2, -999.0
18-04-2022, 00:29:51,    214,    0.0,    8.7,   0.00,   0.00, 1013.7,   64.2, -999.0
18-04-2022, 00:30:01,    214,    0.0,    8.7,   0.00,   0.00, 1013.8,   64.3, -999.0
18-04-2022, 00:30:11,    213,    0.0,    8.7,   0.00,   0.00, 1013.7,   64.2, -999.0
18-04-2022, 00:30:21,    213,    0.0,    8.6,   0.00,   0.00, 1013.7,   64.1, -999.0
18-04-2022, 00:30:31,    214,    0.0,    8.8,   0.00,   0.00, 1013.7,   64.2, -999.0
18-04-2022, 00:30:40,    204,    0.0,    8.7,   0.00,   0.00, 1013.7,   64.2, -999.0
18-04-2022, 00:30:51,    204,    0.0,    8.7,   0.00,   0.00, 1013.7,   64.2, -999.0
18-04-2022, 00:31:01,    204,    0.0,    8.7,   0.00,   0.00, 1013.7,   64.2, -999.0
18-04-2022, 00:31:10,    204,    0.0,    8.6,   0.00,   0.00, 1013.7,   64.3, -999.0
18-04-2022, 00:31:21,    204,    0.0,    8.6,   0.00,   0.00, 1013.8,   64.2, -999.0
18-04-2022, 00:31:30,    204,    0.0,    8.7,   0.00,   0.00, 1013.7,   64.2, -999.0
18-04-2022, 00:31:40,    204,    0.0,    8.7,   0.00,   0.00, 1013.7,   64.2, -999.0
18-04-2022, 00:31:50,    203,    0.0,    8.7,   0.00,   0.00, 1013.7,   64.2, -999.0
18-04-2022, 00:32:00,    204,    0.0,    8.7,   0.00,   0.00, 1013.7,   64.3, -999.0
18-04-2022, 00:32:10,    204,    0.0,    8.7,   0.00,   0.00, 1013.8,   64.2, -999.0
18-04-2022, 00:32:20,    204,    0.0,    8.7,   0.00,   0.00, 1013.7,   64.3, -999.0
18-04-2022, 00:32:30,    203,    0.0,    8.7,   0.00,   0.00, 1013.7,   64.3, -999.0
18-04-2022, 00:32:40,    204,    0.0,    8.6,   0.00,   0.00, 1013.7,   64.3, -999.0
18-04-2022, 00:32:50,    204,    0.0,    8.7,   0.00,   0.00, 1013.7,   64.3, -999.0
18-04-2022, 00:33:00,    204,    0.0,    8.7,   0.00,   0.00, 1013.8,   64.3, -999.0
18-04-2022, 00:33:10,    203,    0.0,    8.7,   0.00,   0.00, 1013.7,   64.3, -999.0
18-04-2022, 00:33:20,    204,    0.0,    8.7,   0.00,   0.00, 1013.7,   64.3, -999.0
18-04-2022, 00:33:30,    203,    0.0,    8.7,   0.00,   0.00, 1013.7,   64.3, -999.0
18-04-2022, 00:33:40,    204,    0.0,    8.7,   0.00,   0.00, 1013.7,   64.4, -999.0
18-04-2022, 00:33:49,    203,    0.0,    8.7,   0.00,   0.00, 1013.7,   64.4, -999.0
18-04-2022, 00:34:00,    203,    0.0,    8.7,   0.00,   0.00, 1013.7,   64.3, -999.0
18-04-2022, 00:34:10,    204,    0.0,    8.7,   0.00,   0.00, 1013.7,   64.3, -999.0
18-04-2022, 00:34:19,    203,    0.0,    8.7,   0.00,   0.00, 1013.7,   64.3, -999.0
18-04-2022, 00:34:30,    202,    0.0,    8.7,   0.00,   0.00, 1013.7,   64.4, -999.0
18-04-2022, 00:34:39,    202,    0.0,    8.6,   0.00,   0.00, 1013.7,   64.3, -999.0
18-04-2022, 00:34:49,    203,    0.0,    8.6,   0.00,   0.00, 1013.7,   64.4, -999.0
18-04-2022, 00:34:59,    202,    0.0,    8.7,   0.00,   0.00, 1013.7,   64.4, -999.0
18-04-2022, 00:35:09,    203,    0.0,    8.7,   0.00,   0.00, 1013.7,   64.3, -999.0
18-04-2022, 00:35:19,    203,    0.0,    8.6,   0.00,   0.00, 1013.7,   64.4, -999.0
18-04-2022, 00:35:29,    202,    0.0,    8.6,   0.00,   0.00, 1013.7,   64.4, -999.0
18-04-2022, 00:35:39,    202,    0.0,    8.6,   0.00,   0.00, 1013.7,   64.4, -999.0
18-04-2022, 00:35:49,    203,    0.0,    8.6,   0.00,   0.00, 1013.7,   64.5, -999.0
18-04-2022, 00:35:59,    202,    0.0,    8.7,   0.00,   0.00, 1013.7,   64.5, -999.0
18-04-2022, 00:36:09,    203,    0.0,    8.7,   0.00,   0.00, 1013.7,   64.6, -999.0
18-04-2022, 00:36:19,    203,    0.0,    8.6,   0.00,   0.00, 1013.7,   64.6, -999.0
18-04-2022, 00:36:29,    203,    0.0,    8.6,   0.00,   0.00, 1013.7,   64.7, -999.0
18-04-2022, 00:36:41,    203,    0.0,    8.6,   0.00,   0.00, 1013.7,   64.6, -999.0
18-04-2022, 00:36:49,    202,    0.0,    8.7,   0.00,   0.00, 1013.7,   64.7, -999.0
18-04-2022, 00:36:59,    202,    0.0,    8.6,   0.00,   0.00, 1013.7,   64.6, -999.0
18-04-2022, 00:37:09,    202,    0.0,    8.6,   0.00,   0.00, 1013.7,   64.7, -999.0
18-04-2022, 00:37:19,    202,    0.0,    8.6,   0.00,   0.00, 1013.7,   64.7, -999.0
18-04-2022, 00:37:28,    202,    0.0,    8.7,   0.00,   0.00, 1013.6,   64.6, -999.0
18-04-2022, 00:37:39,    202,    0.0,    8.6,   0.00,   0.00, 1013.7,   64.7, -999.0
18-04-2022, 00:37:48,    202,    0.0,    8.6,   0.00,   0.00, 1013.6,   64.6, -999.0
18-04-2022, 00:37:58,    202,    0.0,    8.6,   0.00,   0.00, 1013.6,   64.7, -999.0
18-04-2022, 00:38:08,    203,    0.0,    8.6,   0.00,   0.00, 1013.6,   64.7, -999.0
18-04-2022, 00:38:20,    205,    0.0,    8.6,   0.00,   0.00, 1013.6,   64.7, -999.0
18-04-2022, 00:38:28,    205,    0.0,    8.6,   0.00,   0.00, 1013.6,   64.7, -999.0
18-04-2022, 00:38:38,    204,    0.0,    8.6,   0.00,   0.00, 1013.6,   64.7, -999.0
18-04-2022, 00:38:48,    205,    0.0,    8.6,   0.00,   0.00, 1013.6,   64.8, -999.0
18-04-2022, 00:38:58,    204,    0.0,    8.6,   0.00,   0.00, 1013.6,   64.8, -999.0
18-04-2022, 00:39:08,    205,    0.0,    8.7,   0.00,   0.00, 1013.6,   64.8, -999.0
18-04-2022, 00:39:18,    205,    0.0,    8.6,   0.00,   0.00, 1013.6,   64.9, -999.0
18-04-2022, 00:39:28,    205,    0.0,    8.6,   0.00,   0.00, 1013.6,   64.9, -999.0
18-04-2022, 00:39:38,    206,    0.0,    8.6,   0.00,   0.00, 1013.6,   64.9, -999.0
18-04-2022, 00:39:48,    206,    0.0,    8.7,   0.00,   0.00, 1013.6,   64.9, -999.0
18-04-2022, 00:39:58,    206,    0.0,    8.6,   0.00,   0.00, 1013.6,   65.0, -999.0
18-04-2022, 00:40:08,    206,    0.0,    8.7,   0.00,   0.00, 1013.6,   65.0, -999.0
18-04-2022, 00:40:18,    204,    0.0,    8.6,   0.00,   0.00, 1013.6,   64.9, -999.0
18-04-2022, 00:40:28,    203,    0.0,    8.6,   0.00,   0.00, 1013.6,   65.1, -999.0
18-04-2022, 00:40:37,    204,    0.0,    8.5,   0.00,   0.00, 1013.6,   65.0, -999.0
18-04-2022, 00:40:48,    203,    0.0,    8.5,   0.00,   0.00, 1013.6,   65.1, -999.0
18-04-2022, 00:40:57,    203,    0.0,    8.6,   0.00,   0.00, 1013.6,   65.0, -999.0
18-04-2022, 00:41:07,    203,    0.0,    8.6,   0.00,   0.00, 1013.6,   65.0, -999.0
18-04-2022, 00:41:18,    203,    0.0,    8.7,   0.00,   0.00, 1013.7,   65.1, -999.0
18-04-2022, 00:41:27,    203,    0.0,    8.6,   0.00,   0.00, 1013.6,   65.1, -999.0
18-04-2022, 00:41:37,    203,    0.0,    8.7,   0.00,   0.00, 1013.7,   65.0, -999.0
18-04-2022, 00:41:47,    203,    0.0,    8.8,   0.00,   0.00, 1013.6,   65.0, -999.0
18-04-2022, 00:41:57,    203,    0.0,    8.7,   0.00,   0.00, 1013.6,   65.0, -999.0
18-04-2022, 00:42:07,    203,    0.0,    8.7,   0.00,   0.00, 1013.6,   65.0, -999.0
18-04-2022, 00:42:17,    203,    0.0,    8.7,   0.00,   0.00, 1013.6,   65.0, -999.0
18-04-2022, 00:42:27,    202,    0.0,    8.7,   0.00,   0.00, 1013.6,   65.1, -999.0
18-04-2022, 00:42:37,    203,    0.0,    8.6,   0.00,   0.00, 1013.6,   65.1, -999.0
18-04-2022, 00:42:47,    207,    0.0,    8.6,   0.00,   0.00, 1013.6,   65.0, -999.0
18-04-2022, 00:42:57,    248,    0.5,    8.8,   0.00,   0.00, 1013.7,   65.5, -999.0
18-04-2022, 00:43:07,    211,    0.6,    8.8,   0.00,   0.00, 1013.7,   65.6, -999.0
18-04-2022, 00:43:17,    210,    0.0,    8.6,   0.00,   0.00, 1013.6,   65.4, -999.0
18-04-2022, 00:43:27,    211,    0.0,    8.6,   0.00,   0.00, 1013.6,   65.3, -999.0
18-04-2022, 00:43:37,    230,    0.0,    8.5,   0.00,   0.00, 1013.6,   65.2, -999.0
18-04-2022, 00:43:47,    230,    0.0,    8.6,   0.00,   0.00, 1013.6,   65.3, -999.0
18-04-2022, 00:43:57,    231,    0.0,    8.7,   0.00,   0.00, 1013.5,   65.4, -999.0
18-04-2022, 00:44:06,    230,    0.0,    8.6,   0.00,   0.00, 1013.5,   65.5, -999.0
18-04-2022, 00:44:16,    230,    0.0,    8.6,   0.00,   0.00, 1013.5,   65.4, -999.0
18-04-2022, 00:44:27,    230,    0.0,    8.6,   0.00,   0.00, 1013.5,   65.4, -999.0
18-04-2022, 00:44:36,    231,    0.0,    8.6,   0.00,   0.00, 1013.6,   65.4, -999.0
18-04-2022, 00:44:46,    231,    0.0,    8.7,   0.00,   0.00, 1013.6,   65.4, -999.0
18-04-2022, 00:44:56,    231,    0.0,    8.6,   0.00,   0.00, 1013.6,   65.5, -999.0
18-04-2022, 00:45:06,    230,    0.0,    8.7,   0.00,   0.00, 1013.6,   65.5, -999.0
18-04-2022, 00:45:16,    230,    0.0,    8.7,   0.00,   0.00, 1013.6,   65.4, -999.0
18-04-2022, 00:45:26,    230,    0.0,    8.7,   0.00,   0.00, 1013.6,   65.4, -999.0
18-04-2022, 00:45:36,    231,    0.0,    8.8,   0.00,   0.00, 1013.6,   65.5, -999.0
18-04-2022, 00:45:46,    230,    0.0,    8.8,   0.00,   0.00, 1013.5,   65.4, -999.0
18-04-2022, 00:45:56,    231,    0.0,    8.7,   0.00,   0.00, 1013.6,   65.5, -999.0
18-04-2022, 00:46:06,    208,    0.0,    8.7,   0.00,   0.00, 1013.5,   65.5, -999.0
18-04-2022, 00:46:16,    200,    0.0,    8.7,   0.00,   0.00, 1013.6,   65.4, -999.0
18-04-2022, 00:46:26,    201,    0.0,    8.7,   0.00,   0.00, 1013.6,   65.5, -999.0
18-04-2022, 00:46:36,    201,    0.0,    8.7,   0.00,   0.00, 1013.6,   65.5, -999.0